Time,TemperatureF,DewpointF,PressureIn,WindDirection,WindDirectionDegrees,WindSpeedMPH,WindSpeedGustMPH,Humidity,HourlyPrecipIn,Conditions,Clouds,dailyrainin,SoftwareType,DateUTC
2013-07-10 00:03:00,51.4,51.1,30.09,NNE,12,5.0,9.0,99,0.00,,,0.00,Wunderground v.1.15,2013-07-10 07:03:00,
2013-07-10 00:09:00,51.4,51.1,30.09,NE,37,4.0,9.0,99,0.00,,,0.00,Wunderground v.1.15,2013-07-10 07:09:00,
2013-07-10 00:14:00,51.3,51.0,30.09,NNE,15,4.0,7.0,99,0.00,,,0.00,Wunderground v.1.15,2013-07-10 07:14:00,
2013-07-10 00:19:00,51.5,51.2,30.09,NE,52,5.0,8.0,99,0.00,,,0.00,Wunderground v.1.15,2013-07-10 07:19:00,
2013-07-10 00:25:00,51.5,51.2,30.09,NNE,29,4.0,5.0,99,0.00,,,0.00,Wunderground v.1.15,2013-07-10 07:25:00,
2013-07-10 00:30:00,51.3,51.0,30.09,NE,41,4.0,7.0,99,0.00,,,0.00,Wunderground v.1.15,2013-07-10 07:30:00,
2013-07-10 00:36:00,51.5,51.2,30.09,NE,39,5.0,7.0,99,0.00,,,0.00,Wunderground v.1.15,2013-07-10 07:36:00,
2013-07-10 00:41:00,51.5,51.2,30.09,NE,44,5.0,5.0,99,0.00,,,0.00,Wunderground v.1.15,2013-07-10 07:41:00,
2013-07-10 00:47:00,51.6,51.3,30.08,NE,35,4.0,5.0,99,0.00,,,0.00,Wunderground v.1.15,2013-07-10 07:47:00,
2013-07-10 00:53:00,51.5,51.2,30.09,NE,49,4.0,8.0,99,0.00,,,0.00,Wunderground v.1.15,2013-07-10 07:53:00,
2013-07-10 00:58:00,51.5,51.2,30.09,NE,50,5.0,8.0,99,0.00,,,0.00,Wunderground v.1.15,2013-07-10 07:58:00,
2013-07-10 01:04:00,51.5,51.2,30.09,NNE,22,4.0,11.0,99,0.00,,,0.00,Wunderground v.1.15,2013-07-10 08:04:00,
2013-07-10 01:09:00,51.5,51.2,30.09,ENE,57,4.0,11.0,99,0.00,,,0.00,Wunderground v.1.15,2013-07-10 08:09:00,
2013-07-10 01:14:00,51.5,51.2,30.08,North,360,4.0,11.0,99,0.00,,,0.00,Wunderground v.1.15,2013-07-10 08:14:00,
2013-07-10 01:19:00,51.5,51.2,30.08,ENE,61,4.0,11.0,99,0.00,,,0.00,Wunderground v.1.15,2013-07-10 08:19:00,
2013-07-10 01:24:00,51.5,51.2,30.08,ENE,68,4.0,11.0,99,0.00,,,0.00,Wunderground v.1.15,2013-07-10 08:24:00,
2013-07-10 01:30:00,51.5,51.2,30.08,NNE,26,5.0,5.0,99,0.00,,,0.00,Wunderground v.1.15,2013-07-10 08:30:00,
2013-07-10 01:35:00,51.2,50.7,30.08,NNE,13,4.0,11.0,98,0.00,,,0.00,Wunderground v.1.15,2013-07-10 08:35:00,
2013-07-10 01:40:00,51.4,51.1,30.08,NE,49,5.0,5.0,99,0.00,,,0.00,Wunderground v.1.15,2013-07-10 08:40:00,
2013-07-10 01:46:00,51.7,51.4,30.08,NE,46,5.0,11.0,99,0.00,,,0.00,Wunderground v.1.15,2013-07-10 08:46:00,
2013-07-10 01:51:00,51.7,51.4,30.08,ENE,59,5.0,11.0,99,0.00,,,0.00,Wunderground v.1.15,2013-07-10 08:51:00,
2013-07-10 01:57:00,51.7,51.4,30.07,NNE,20,5.0,11.0,99,0.00,,,0.00,Wunderground v.1.15,2013-07-10 08:57:00,
2013-07-10 02:02:00,51.9,51.6,30.07,NNE,24,5.0,11.0,99,0.00,,,0.00,Wunderground v.1.15,2013-07-10 09:02:00,
2013-07-10 02:08:00,51.7,51.4,30.07,ENE,67,5.0,11.0,99,0.00,,,0.00,Wunderground v.1.15,2013-07-10 09:08:00,
2013-07-10 02:13:00,51.6,51.3,30.07,NNE,29,5.0,11.0,99,0.00,,,0.00,Wunderground v.1.15,2013-07-10 09:13:00,
2013-07-10 02:19:00,51.7,51.4,30.07,NE,38,6.0,11.0,99,0.00,,,0.00,Wunderground v.1.15,2013-07-10 09:19:00,
2013-07-10 02:25:00,51.6,51.3,30.07,ENE,60,6.0,11.0,99,0.00,,,0.00,Wunderground v.1.15,2013-07-10 09:25:00,
2013-07-10 02:31:00,51.5,51.2,30.08,NE,36,5.0,11.0,99,0.00,,,0.00,Wunderground v.1.15,2013-07-10 09:31:00,
2013-07-10 02:37:00,51.6,51.3,30.08,ENE,71,6.0,11.0,99,0.00,,,0.00,Wunderground v.1.15,2013-07-10 09:37:00,
2013-07-10 02:42:00,51.8,51.5,30.08,NNE,26,6.0,11.0,99,0.00,,,0.00,Wunderground v.1.15,2013-07-10 09:42:00,
2013-07-10 02:48:00,51.9,51.6,30.07,NNE,19,6.0,11.0,99,0.00,,,0.00,Wunderground v.1.15,2013-07-10 09:48:00,
2013-07-10 02:54:00,51.9,51.6,30.07,NE,49,5.0,11.0,99,0.00,,,0.00,Wunderground v.1.15,2013-07-10 09:54:00,
2013-07-10 02:59:00,51.7,51.2,30.07,ENE,59,5.0,11.0,98,0.00,,,0.00,Wunderground v.1.15,2013-07-10 09:59:00,
2013-07-10 03:05:00,51.8,51.5,30.07,NE,49,5.0,11.0,99,0.00,,,0.00,Wunderground v.1.15,2013-07-10 10:05:00,
2013-07-10 03:10:00,51.8,51.5,30.07,NE,43,6.0,6.0,99,0.00,,,0.00,Wunderground v.1.15,2013-07-10 10:10:00,
2013-07-10 03:16:00,51.4,51.1,30.07,NNE,17,6.0,11.0,99,0.00,,,0.00,Wunderground v.1.15,2013-07-10 10:16:00,
2013-07-10 03:21:00,51.6,51.3,30.07,North,5,5.0,11.0,99,0.00,,,0.00,Wunderground v.1.15,2013-07-10 10:21:00,
2013-07-10 03:27:00,51.9,51.6,30.07,ENE,57,6.0,11.0,99,0.00,,,0.00,Wunderground v.1.15,2013-07-10 10:27:00,
2013-07-10 03:33:00,51.9,51.6,30.07,NE,44,6.0,11.0,99,0.00,,,0.00,Wunderground v.1.15,2013-07-10 10:33:00,
2013-07-10 03:38:00,52.0,51.7,30.06,NE,55,6.0,11.0,99,0.00,,,0.00,Wunderground v.1.15,2013-07-10 10:38:00,
2013-07-10 03:43:00,52.1,51.8,30.06,NE,43,6.0,11.0,99,0.00,,,0.00,Wunderground v.1.15,2013-07-10 10:43:00,
2013-07-10 03:49:00,52.3,52.0,30.06,NE,46,6.0,11.0,99,0.00,,,0.00,Wunderground v.1.15,2013-07-10 10:49:00,
2013-07-10 03:55:00,52.3,52.0,30.06,ENE,65,6.0,11.0,99,0.00,,,0.00,Wunderground v.1.15,2013-07-10 10:55:00,
2013-07-10 04:00:00,52.4,52.1,30.06,NE,55,5.0,11.0,99,0.00,,,0.00,Wunderground v.1.15,2013-07-10 11:00:00,
2013-07-10 04:05:00,52.4,52.1,30.06,NE,55,5.0,11.0,99,0.00,,,0.00,Wunderground v.1.15,2013-07-10 11:05:00,
2013-07-10 04:11:00,52.3,52.0,30.06,East,80,5.0,11.0,99,0.00,,,0.00,Wunderground v.1.15,2013-07-10 11:11:00,
2013-07-10 04:16:00,52.3,51.8,30.06,NE,55,6.0,11.0,98,0.00,,,0.00,Wunderground v.1.15,2013-07-10 11:16:00,
2013-07-10 04:21:00,52.3,51.8,30.06,ENE,57,6.0,11.0,98,0.00,,,0.00,Wunderground v.1.15,2013-07-10 11:21:00,
2013-07-10 04:27:00,52.3,52.0,30.06,NE,48,6.0,11.0,99,0.00,,,0.00,Wunderground v.1.15,2013-07-10 11:27:00,
2013-07-10 04:32:00,52.5,52.2,30.06,NE,40,7.0,11.0,99,0.00,,,0.00,Wunderground v.1.15,2013-07-10 11:32:00,
2013-07-10 04:38:00,52.5,52.0,30.06,East,86,7.0,11.0,98,0.00,,,0.00,Wunderground v.1.15,2013-07-10 11:38:00,
2013-07-10 04:44:00,52.6,52.1,30.06,NE,51,6.0,11.0,98,0.00,,,0.00,Wunderground v.1.15,2013-07-10 11:44:00,
2013-07-10 04:50:00,52.5,52.0,30.06,East,80,7.0,11.0,98,0.00,,,0.00,Wunderground v.1.15,2013-07-10 11:50:00,
2013-07-10 04:56:00,52.4,51.9,30.05,ENE,67,6.0,11.0,98,0.00,,,0.00,Wunderground v.1.15,2013-07-10 11:56:00,
2013-07-10 05:01:00,52.5,52.0,30.05,ENE,74,7.0,11.0,98,0.00,,,0.00,Wunderground v.1.15,2013-07-10 12:01:00,
2013-07-10 05:07:00,52.4,51.9,30.05,North,350,7.0,11.0,98,0.00,,,0.00,Wunderground v.1.15,2013-07-10 12:07:00,
2013-07-10 05:12:00,52.4,51.9,30.05,NE,54,7.0,11.0,98,0.00,,,0.00,Wunderground v.1.15,2013-07-10 12:12:00,
2013-07-10 05:18:00,52.3,51.8,30.05,ENE,74,7.0,11.0,98,0.00,,,0.00,Wunderground v.1.15,2013-07-10 12:18:00,
2013-07-10 05:23:00,51.8,51.3,30.05,NNW,335,6.0,11.0,98,0.00,,,0.00,Wunderground v.1.15,2013-07-10 12:23:00,
2013-07-10 05:29:00,51.5,50.7,30.05,North,5,6.0,11.0,97,0.00,,,0.00,Wunderground v.1.15,2013-07-10 12:29:00,
2013-07-10 05:34:00,51.1,50.6,30.06,North,5,6.0,11.0,98,0.00,,,0.00,Wunderground v.1.15,2013-07-10 12:34:00,
2013-07-10 05:40:00,51.0,50.5,30.06,NNW,331,7.0,11.0,98,0.00,,,0.00,Wunderground v.1.15,2013-07-10 12:40:00,
2013-07-10 05:45:00,50.7,49.9,30.05,NNE,16,7.0,11.0,97,0.00,,,0.00,Wunderground v.1.15,2013-07-10 12:45:00,
2013-07-10 05:50:00,50.7,50.2,30.05,North,5,6.0,11.0,98,0.00,,,0.00,Wunderground v.1.15,2013-07-10 12:50:00,
2013-07-10 05:55:00,51.0,50.5,30.05,NE,49,6.0,11.0,98,0.00,,,0.00,Wunderground v.1.15,2013-07-10 12:55:00,
2013-07-10 06:00:00,51.2,50.7,30.05,NNE,33,7.0,7.0,98,0.00,,,0.00,Wunderground v.1.15,2013-07-10 13:00:00,
2013-07-10 06:06:00,51.5,51.0,30.05,North,360,8.0,11.0,98,0.00,,,0.00,Wunderground v.1.15,2013-07-10 13:06:00,
2013-07-10 06:12:00,51.8,51.3,30.05,ENE,61,8.0,11.0,98,0.00,,,0.00,Wunderground v.1.15,2013-07-10 13:12:00,
2013-07-10 06:18:00,51.9,51.4,30.05,NE,49,9.0,11.0,98,0.00,,,0.00,Wunderground v.1.15,2013-07-10 13:18:00,
2013-07-10 06:24:00,52.0,51.2,30.05,ENE,57,8.0,11.0,97,0.00,,,0.00,Wunderground v.1.15,2013-07-10 13:24:00,
2013-07-10 06:30:00,52.0,51.2,30.05,NE,39,8.0,8.0,97,0.00,,,0.00,Wunderground v.1.15,2013-07-10 13:30:00,
2013-07-10 06:36:00,52.0,51.2,30.05,NNE,17,7.0,11.0,97,0.00,,,0.00,Wunderground v.1.15,2013-07-10 13:36:00,
2013-07-10 06:42:00,51.6,50.8,30.06,NNE,30,7.0,11.0,97,0.00,,,0.00,Wunderground v.1.15,2013-07-10 13:42:00,
2013-07-10 06:47:00,51.5,50.7,30.06,NE,39,7.0,11.0,97,0.00,,,0.00,Wunderground v.1.15,2013-07-10 13:47:00,
2013-07-10 06:52:00,51.3,50.5,30.06,NNE,22,6.0,11.0,97,0.00,,,0.00,Wunderground v.1.15,2013-07-10 13:52:00,
2013-07-10 06:58:00,51.3,50.5,30.06,NNE,15,6.0,11.0,97,0.00,,,0.00,Wunderground v.1.15,2013-07-10 13:58:00,
2013-07-10 07:04:00,51.5,50.7,30.06,NNE,22,6.0,11.0,97,0.00,,,0.00,Wunderground v.1.15,2013-07-10 14:04:00,
2013-07-10 07:09:00,51.4,50.6,30.06,NNW,348,7.0,11.0,97,0.00,,,0.00,Wunderground v.1.15,2013-07-10 14:09:00,
2013-07-10 07:15:00,51.3,50.5,30.06,NE,38,7.0,11.0,97,0.00,,,0.00,Wunderground v.1.15,2013-07-10 14:15:00,
2013-07-10 07:20:00,51.1,50.3,30.06,NNE,20,6.0,6.0,97,0.00,,,0.00,Wunderground v.1.15,2013-07-10 14:20:00,
2013-07-10 07:25:00,50.8,50.0,30.06,North,5,6.0,12.0,97,0.00,,,0.00,Wunderground v.1.15,2013-07-10 14:25:00,
2013-07-10 07:30:00,50.8,50.0,30.06,NNE,28,6.0,6.0,97,0.00,,,0.00,Wunderground v.1.15,2013-07-10 14:30:00,
2013-07-10 07:36:00,50.7,49.9,30.06,NNE,25,6.0,11.0,97,0.00,,,0.00,Wunderground v.1.15,2013-07-10 14:36:00,
2013-07-10 07:41:00,50.7,49.9,30.06,North,360,7.0,8.0,97,0.00,,,0.00,Wunderground v.1.15,2013-07-10 14:41:00,
2013-07-10 07:47:00,50.8,50.0,30.06,NNE,12,6.0,11.0,97,0.00,,,0.00,Wunderground v.1.15,2013-07-10 14:47:00,
2013-07-10 07:52:00,51.0,50.2,30.06,North,355,6.0,12.0,97,0.00,,,0.00,Wunderground v.1.15,2013-07-10 14:52:00,
2013-07-10 07:58:00,51.0,50.2,30.06,North,9,7.0,12.0,97,0.00,,,0.00,Wunderground v.1.15,2013-07-10 14:58:00,
2013-07-10 08:04:00,51.0,50.2,30.06,NNE,22,7.0,11.0,97,0.00,,,0.00,Wunderground v.1.15,2013-07-10 15:04:00,
2013-07-10 08:09:00,51.1,50.3,30.06,North,5,7.0,11.0,97,0.00,,,0.00,Wunderground v.1.15,2013-07-10 15:09:00,
2013-07-10 08:14:00,51.2,50.1,30.06,NNE,19,7.0,11.0,96,0.00,,,0.00,Wunderground v.1.15,2013-07-10 15:14:00,
2013-07-10 08:20:00,51.2,50.1,30.06,NNW,332,7.0,11.0,96,0.00,,,0.00,Wunderground v.1.15,2013-07-10 15:20:00,
2013-07-10 08:25:00,51.2,50.1,30.06,North,10,8.0,11.0,96,0.00,,,0.00,Wunderground v.1.15,2013-07-10 15:25:00,
2013-07-10 08:31:00,51.3,50.2,30.06,NNE,30,7.0,11.0,96,0.00,,,0.00,Wunderground v.1.15,2013-07-10 15:31:00,
2013-07-10 08:37:00,51.3,50.2,30.06,NNE,19,7.0,11.0,96,0.00,,,0.00,Wunderground v.1.15,2013-07-10 15:37:00,
2013-07-10 08:43:00,51.5,50.4,30.06,NW,317,7.0,11.0,96,0.00,,,0.00,Wunderground v.1.15,2013-07-10 15:43:00,
2013-07-10 08:49:00,51.6,50.5,30.06,North,355,8.0,11.0,96,0.00,,,0.00,Wunderground v.1.15,2013-07-10 15:49:00,
2013-07-10 08:55:00,51.9,50.8,30.06,North,350,10.0,19.0,96,0.00,,,0.00,Wunderground v.1.15,2013-07-10 15:55:00,
2013-07-10 09:01:00,51.9,50.5,30.06,NNE,17,11.0,11.0,95,0.00,,,0.00,Wunderground v.1.15,2013-07-10 16:01:00,
2013-07-10 09:06:00,51.9,50.5,30.06,NNE,17,10.0,16.0,95,0.00,,,0.00,Wunderground v.1.15,2013-07-10 16:06:00,
2013-07-10 09:12:00,51.5,50.1,30.06,North,5,12.0,12.0,95,0.00,,,0.00,Wunderground v.1.15,2013-07-10 16:12:00,
2013-07-10 09:18:00,51.6,50.2,30.06,North,5,12.0,13.0,95,0.00,,,0.00,Wunderground v.1.15,2013-07-10 16:18:00,
2013-07-10 09:23:00,51.6,50.2,30.06,North,5,11.0,13.0,95,0.00,,,0.00,Wunderground v.1.15,2013-07-10 16:23:00,
2013-07-10 09:29:00,51.7,50.0,30.06,North,5,11.0,19.0,94,0.00,,,0.00,Wunderground v.1.15,2013-07-10 16:29:00,
2013-07-10 09:34:00,51.8,50.4,30.06,NE,45,12.0,15.0,95,0.00,,,0.00,Wunderground v.1.15,2013-07-10 16:34:00,
2013-07-10 09:40:00,52.3,50.9,30.06,North,350,11.0,11.0,95,0.00,,,0.00,Wunderground v.1.15,2013-07-10 16:40:00,
2013-07-10 09:46:00,52.3,50.6,30.06,North,355,11.0,15.0,94,0.00,,,0.00,Wunderground v.1.15,2013-07-10 16:46:00,
2013-07-10 09:52:00,51.8,50.1,30.05,North,5,15.0,20.0,94,0.00,,,0.00,Wunderground v.1.15,2013-07-10 16:52:00,
2013-07-10 09:58:00,51.3,49.6,30.05,North,360,17.0,20.0,94,0.00,,,0.00,Wunderground v.1.15,2013-07-10 16:58:00,
2013-07-10 10:03:00,51.0,49.3,30.05,North,9,16.0,17.0,94,0.00,,,0.00,Wunderground v.1.15,2013-07-10 17:03:00,
2013-07-10 10:08:00,50.9,49.2,30.05,North,360,16.0,20.0,94,0.00,,,0.00,Wunderground v.1.15,2013-07-10 17:08:00,
2013-07-10 10:13:00,51.1,49.4,30.05,North,355,16.0,18.0,94,0.00,,,0.00,Wunderground v.1.15,2013-07-10 17:13:00,
2013-07-10 10:19:00,51.4,49.7,30.05,North,355,17.0,19.0,94,0.00,,,0.00,Wunderground v.1.15,2013-07-10 17:19:00,
2013-07-10 10:24:00,51.5,49.8,30.05,North,360,17.0,20.0,94,0.00,,,0.00,Wunderground v.1.15,2013-07-10 17:24:00,
2013-07-10 10:30:00,51.5,49.8,30.05,North,355,18.0,18.0,94,0.00,,,0.00,Wunderground v.1.15,2013-07-10 17:30:00,
2013-07-10 10:36:00,51.7,49.7,30.05,North,349,18.0,22.0,93,0.00,,,0.00,Wunderground v.1.15,2013-07-10 17:36:00,
2013-07-10 10:42:00,51.7,50.0,30.05,North,351,18.0,21.0,94,0.00,,,0.00,Wunderground v.1.15,2013-07-10 17:42:00,
2013-07-10 10:47:00,51.5,49.5,30.05,North,5,18.0,22.0,93,0.00,,,0.00,Wunderground v.1.15,2013-07-10 17:47:00,
2013-07-10 10:53:00,51.3,49.6,30.05,North,355,19.0,23.0,94,0.00,,,0.00,Wunderground v.1.15,2013-07-10 17:53:00,
2013-07-10 10:59:00,51.5,49.5,30.05,NNE,13,20.0,25.0,93,0.00,,,0.00,Wunderground v.1.15,2013-07-10 17:59:00,
2013-07-10 11:04:00,51.9,50.2,30.05,North,9,19.0,22.0,94,0.00,,,0.00,Wunderground v.1.15,2013-07-10 18:04:00,
2013-07-10 11:10:00,51.6,49.6,30.05,North,5,19.0,25.0,93,0.00,,,0.00,Wunderground v.1.15,2013-07-10 18:10:00,
2013-07-10 11:15:00,51.9,49.9,30.05,North,349,19.0,25.0,93,0.00,,,0.00,Wunderground v.1.15,2013-07-10 18:15:00,
2013-07-10 11:20:00,52.3,50.3,30.05,North,355,18.0,20.0,93,0.00,,,0.00,Wunderground v.1.15,2013-07-10 18:20:00,
2013-07-10 11:25:00,52.4,50.4,30.05,North,360,17.0,20.0,93,0.00,,,0.00,Wunderground v.1.15,2013-07-10 18:25:00,
2013-07-10 11:30:00,52.1,50.1,30.05,NNE,33,18.0,18.0,93,0.00,,,0.00,Wunderground v.1.15,2013-07-10 18:30:00,
2013-07-10 11:36:00,52.1,50.1,30.05,North,355,19.0,23.0,93,0.00,,,0.00,Wunderground v.1.15,2013-07-10 18:36:00,
2013-07-10 11:41:00,52.4,50.4,30.05,North,360,18.0,22.0,93,0.00,,,0.00,Wunderground v.1.15,2013-07-10 18:41:00,
2013-07-10 11:46:00,52.1,50.1,30.04,North,349,19.0,22.0,93,0.00,,,0.00,Wunderground v.1.15,2013-07-10 18:46:00,
2013-07-10 11:51:00,52.2,50.2,30.04,North,5,20.0,23.0,93,0.00,,,0.00,Wunderground v.1.15,2013-07-10 18:51:00,
2013-07-10 11:57:00,52.0,50.0,30.04,North,350,20.0,23.0,93,0.00,,,0.00,Wunderground v.1.15,2013-07-10 18:57:00,
2013-07-10 12:02:00,52.2,50.2,30.04,North,360,20.0,23.0,93,0.00,,,0.00,Wunderground v.1.15,2013-07-10 19:02:00,
2013-07-10 12:08:00,52.2,50.2,30.04,North,360,20.0,23.0,93,0.00,,,0.00,Wunderground v.1.15,2013-07-10 19:08:00,
2013-07-10 12:13:00,52.2,50.2,30.04,North,5,19.0,20.0,93,0.00,,,0.00,Wunderground v.1.15,2013-07-10 19:13:00,
2013-07-10 12:19:00,51.9,49.9,30.04,North,355,20.0,23.0,93,0.00,,,0.00,Wunderground v.1.15,2013-07-10 19:19:00,
2013-07-10 12:24:00,51.8,49.8,30.04,North,9,20.0,20.0,93,0.00,,,0.00,Wunderground v.1.15,2013-07-10 19:24:00,
2013-07-10 12:29:00,51.8,49.8,30.04,North,5,20.0,24.0,93,0.00,,,0.00,Wunderground v.1.15,2013-07-10 19:29:00,
2013-07-10 12:35:00,51.9,49.9,30.04,NNW,341,19.0,22.0,93,0.00,,,0.00,Wunderground v.1.15,2013-07-10 19:35:00,
2013-07-10 12:40:00,51.7,49.7,30.04,North,360,19.0,20.0,93,0.00,,,0.00,Wunderground v.1.15,2013-07-10 19:40:00,
2013-07-10 12:45:00,51.9,49.9,30.04,North,9,19.0,23.0,93,0.00,,,0.00,Wunderground v.1.15,2013-07-10 19:45:00,
2013-07-10 12:51:00,51.8,49.8,30.04,North,5,19.0,20.0,93,0.00,,,0.00,Wunderground v.1.15,2013-07-10 19:51:00,
2013-07-10 12:56:00,51.7,49.7,30.03,North,355,19.0,21.0,93,0.00,,,0.00,Wunderground v.1.15,2013-07-10 19:56:00,
2013-07-10 13:01:00,51.7,49.7,30.04,North,9,19.0,19.0,93,0.00,,,0.00,Wunderground v.1.15,2013-07-10 20:01:00,
2013-07-10 13:07:00,51.7,49.7,30.03,North,360,18.0,19.0,93,0.00,,,0.00,Wunderground v.1.15,2013-07-10 20:07:00,
2013-07-10 13:12:00,51.9,49.9,30.03,NNE,21,17.0,20.0,93,0.00,,,0.00,Wunderground v.1.15,2013-07-10 20:12:00,
2013-07-10 13:18:00,52.1,50.1,30.03,North,360,18.0,23.0,93,0.00,,,0.00,Wunderground v.1.15,2013-07-10 20:18:00,
2013-07-10 13:24:00,52.3,50.3,30.03,North,355,20.0,21.0,93,0.00,,,0.00,Wunderground v.1.15,2013-07-10 20:24:00,
2013-07-10 13:29:00,52.4,50.4,30.03,North,350,20.0,25.0,93,0.00,,,0.00,Wunderground v.1.15,2013-07-10 20:29:00,
2013-07-10 13:34:00,52.4,50.1,30.03,North,351,20.0,22.0,92,0.00,,,0.00,Wunderground v.1.15,2013-07-10 20:34:00,
2013-07-10 13:39:00,52.4,50.1,30.03,North,360,19.0,23.0,92,0.00,,,0.00,Wunderground v.1.15,2013-07-10 20:39:00,
2013-07-10 13:45:00,52.4,50.1,30.03,North,5,19.0,23.0,92,0.00,,,0.00,Wunderground v.1.15,2013-07-10 20:45:00,
2013-07-10 13:51:00,52.4,50.1,30.03,North,360,20.0,25.0,92,0.00,,,0.00,Wunderground v.1.15,2013-07-10 20:51:00,
2013-07-10 13:56:00,52.6,50.3,30.03,NNW,348,20.0,25.0,92,0.00,,,0.00,Wunderground v.1.15,2013-07-10 20:56:00,
2013-07-10 14:01:00,52.8,50.5,30.03,North,11,19.0,19.0,92,0.00,,,0.00,Wunderground v.1.15,2013-07-10 21:01:00,
2013-07-10 14:06:00,52.7,50.1,30.03,NNW,339,18.0,24.0,91,0.00,,,0.00,Wunderground v.1.15,2013-07-10 21:06:00,
2013-07-10 14:12:00,52.4,49.8,30.02,North,355,18.0,19.0,91,0.00,,,0.00,Wunderground v.1.15,2013-07-10 21:12:00,
2013-07-10 14:17:00,52.4,50.1,30.03,North,355,17.0,20.0,92,0.00,,,0.00,Wunderground v.1.15,2013-07-10 21:17:00,
2013-07-10 14:23:00,52.7,50.4,30.03,North,355,16.0,18.0,92,0.00,,,0.00,Wunderground v.1.15,2013-07-10 21:23:00,
2013-07-10 14:29:00,52.9,50.3,30.03,North,360,15.0,20.0,91,0.00,,,0.00,Wunderground v.1.15,2013-07-10 21:29:00,
2013-07-10 14:34:00,53.1,50.5,30.02,North,355,14.0,19.0,91,0.00,,,0.00,Wunderground v.1.15,2013-07-10 21:34:00,
2013-07-10 14:40:00,53.2,50.3,30.02,North,360,13.0,13.0,90,0.00,,,0.00,Wunderground v.1.15,2013-07-10 21:40:00,
2013-07-10 14:45:00,53.2,50.6,30.02,NE,39,14.0,21.0,91,0.00,,,0.00,Wunderground v.1.15,2013-07-10 21:45:00,
2013-07-10 14:51:00,53.1,50.5,30.02,North,9,15.0,17.0,91,0.00,,,0.00,Wunderground v.1.15,2013-07-10 21:51:00,
2013-07-10 14:56:00,53.0,50.1,30.02,North,350,15.0,17.0,90,0.00,,,0.00,Wunderground v.1.15,2013-07-10 21:56:00,
2013-07-10 15:01:00,53.0,50.1,30.02,North,355,15.0,15.0,90,0.00,,,0.00,Wunderground v.1.15,2013-07-10 22:01:00,
2013-07-10 15:06:00,52.9,50.0,30.02,North,360,16.0,18.0,90,0.00,,,0.00,Wunderground v.1.15,2013-07-10 22:06:00,
2013-07-10 15:12:00,52.9,50.3,30.02,NE,48,16.0,16.0,91,0.00,,,0.00,Wunderground v.1.15,2013-07-10 22:12:00,
2013-07-10 15:18:00,52.8,49.9,30.02,North,5,16.0,20.0,90,0.00,,,0.00,Wunderground v.1.15,2013-07-10 22:18:00,
2013-07-10 15:24:00,52.9,50.0,30.02,North,360,15.0,17.0,90,0.00,,,0.00,Wunderground v.1.15,2013-07-10 22:24:00,
2013-07-10 15:30:00,53.0,50.1,30.02,North,360,15.0,15.0,90,0.00,,,0.00,Wunderground v.1.15,2013-07-10 22:30:00,
2013-07-10 15:36:00,52.8,49.9,30.02,North,360,15.0,17.0,90,0.00,,,0.00,Wunderground v.1.15,2013-07-10 22:36:00,
2013-07-10 15:42:00,52.7,49.8,30.02,ENE,65,16.0,18.0,90,0.00,,,0.00,Wunderground v.1.15,2013-07-10 22:42:00,
2013-07-10 15:48:00,52.8,49.6,30.02,North,5,15.0,19.0,89,0.00,,,0.00,Wunderground v.1.15,2013-07-10 22:48:00,
2013-07-10 15:54:00,52.9,49.7,30.02,North,360,15.0,19.0,89,0.00,,,0.00,Wunderground v.1.15,2013-07-10 22:54:00,
2013-07-10 16:00:00,53.0,49.8,30.02,North,360,14.0,14.0,89,0.00,,,0.00,Wunderground v.1.15,2013-07-10 23:00:00,
2013-07-10 16:06:00,53.0,49.8,30.02,North,355,14.0,16.0,89,0.00,,,0.00,Wunderground v.1.15,2013-07-10 23:06:00,
2013-07-10 16:12:00,53.1,49.6,30.02,North,350,12.0,15.0,88,0.00,,,0.00,Wunderground v.1.15,2013-07-10 23:12:00,
2013-07-10 16:17:00,53.1,49.6,30.02,NNW,337,12.0,17.0,88,0.00,,,0.00,Wunderground v.1.15,2013-07-10 23:17:00,
2013-07-10 16:23:00,53.0,49.5,30.02,NNW,344,13.0,13.0,88,0.00,,,0.00,Wunderground v.1.15,2013-07-10 23:23:00,
2013-07-10 16:29:00,52.8,49.3,30.01,North,355,14.0,18.0,88,0.00,,,0.00,Wunderground v.1.15,2013-07-10 23:29:00,
2013-07-10 16:35:00,52.8,49.3,30.01,North,360,15.0,19.0,88,0.00,,,0.00,Wunderground v.1.15,2013-07-10 23:35:00,
2013-07-10 16:41:00,52.8,49.3,30.01,North,360,15.0,20.0,88,0.00,,,0.00,Wunderground v.1.15,2013-07-10 23:41:00,
2013-07-10 16:46:00,52.9,49.4,30.01,NNW,344,14.0,20.0,88,0.00,,,0.00,Wunderground v.1.15,2013-07-10 23:46:00,
2013-07-10 16:52:00,52.9,49.7,30.01,North,360,13.0,17.0,89,0.00,,,0.00,Wunderground v.1.15,2013-07-10 23:52:00,
2013-07-10 16:57:00,53.1,49.6,30.01,North,360,13.0,17.0,88,0.00,,,0.00,Wunderground v.1.15,2013-07-10 23:57:00,
2013-07-10 17:02:00,53.1,49.6,30.01,North,9,13.0,14.0,88,0.00,,,0.00,Wunderground v.1.15,2013-07-11 00:02:00,
2013-07-10 17:08:00,53.2,49.7,30.01,NNW,348,13.0,16.0,88,0.00,,,0.00,Wunderground v.1.15,2013-07-11 00:08:00,
2013-07-10 17:13:00,53.3,49.8,30.01,North,355,12.0,16.0,88,0.00,,,0.00,Wunderground v.1.15,2013-07-11 00:13:00,
2013-07-10 17:19:00,53.3,49.8,30.01,NNW,345,12.0,19.0,88,0.00,,,0.00,Wunderground v.1.15,2013-07-11 00:19:00,
2013-07-10 17:24:00,53.1,49.6,30.01,North,355,13.0,18.0,88,0.00,,,0.00,Wunderground v.1.15,2013-07-11 00:24:00,
2013-07-10 17:30:00,53.3,49.8,30.01,North,360,13.0,13.0,88,0.00,,,0.00,Wunderground v.1.15,2013-07-11 00:30:00,
2013-07-10 17:35:00,53.6,50.1,30.01,North,350,12.0,15.0,88,0.00,,,0.00,Wunderground v.1.15,2013-07-11 00:35:00,
2013-07-10 17:41:00,53.8,50.3,30.01,North,5,10.0,11.0,88,0.00,,,0.00,Wunderground v.1.15,2013-07-11 00:41:00,
2013-07-10 17:46:00,53.7,50.2,30.01,NE,38,10.0,16.0,88,0.00,,,0.00,Wunderground v.1.15,2013-07-11 00:46:00,
2013-07-10 17:52:00,53.3,49.8,30.01,NNW,344,12.0,17.0,88,0.00,,,0.00,Wunderground v.1.15,2013-07-11 00:52:00,
2013-07-10 17:58:00,53.5,50.0,30.01,North,351,12.0,17.0,88,0.00,,,0.00,Wunderground v.1.15,2013-07-11 00:58:00,
2013-07-10 18:03:00,53.4,49.9,30.01,North,5,11.0,11.0,88,0.00,,,0.00,Wunderground v.1.15,2013-07-11 01:03:00,
2013-07-10 18:09:00,53.3,49.8,30.01,NNE,19,12.0,13.0,88,0.00,,,0.00,Wunderground v.1.15,2013-07-11 01:09:00,
2013-07-10 18:14:00,53.1,49.6,30.01,North,355,13.0,13.0,88,0.00,,,0.00,Wunderground v.1.15,2013-07-11 01:14:00,
2013-07-10 18:20:00,53.1,49.6,30.01,North,9,12.0,12.0,88,0.00,,,0.00,Wunderground v.1.15,2013-07-11 01:20:00,
2013-07-10 18:25:00,53.4,50.2,30.01,North,5,12.0,17.0,89,0.00,,,0.00,Wunderground v.1.15,2013-07-11 01:25:00,
2013-07-10 18:31:00,53.4,49.9,30.01,NNE,15,11.0,14.0,88,0.00,,,0.00,Wunderground v.1.15,2013-07-11 01:31:00,
2013-07-10 18:36:00,53.3,49.8,30.00,NNE,17,12.0,16.0,88,0.00,,,0.00,Wunderground v.1.15,2013-07-11 01:36:00,
2013-07-10 18:42:00,53.2,49.7,30.00,NNE,30,12.0,14.0,88,0.00,,,0.00,Wunderground v.1.15,2013-07-11 01:42:00,
2013-07-10 18:48:00,53.2,49.7,30.00,North,360,11.0,15.0,88,0.00,,,0.00,Wunderground v.1.15,2013-07-11 01:48:00,
2013-07-10 18:54:00,53.1,49.9,30.01,North,355,11.0,12.0,89,0.00,,,0.00,Wunderground v.1.15,2013-07-11 01:54:00,
2013-07-10 19:00:00,53.0,49.8,30.01,North,349,11.0,11.0,89,0.00,,,0.00,Wunderground v.1.15,2013-07-11 02:00:00,
2013-07-10 19:05:00,53.0,49.8,30.01,North,355,10.0,14.0,89,0.00,,,0.00,Wunderground v.1.15,2013-07-11 02:05:00,
2013-07-10 19:10:00,53.1,49.9,30.01,North,360,10.0,11.0,89,0.00,,,0.00,Wunderground v.1.15,2013-07-11 02:10:00,
2013-07-10 19:15:00,53.0,49.8,30.01,North,360,10.0,13.0,89,0.00,,,0.00,Wunderground v.1.15,2013-07-11 02:15:00,
2013-07-10 19:20:00,53.0,49.8,30.01,North,355,9.0,9.0,89,0.00,,,0.00,Wunderground v.1.15,2013-07-11 02:20:00,
2013-07-10 19:26:00,53.1,49.9,30.01,North,5,7.0,11.0,89,0.00,,,0.00,Wunderground v.1.15,2013-07-11 02:26:00,
2013-07-10 19:32:00,53.1,49.9,30.01,NNE,25,6.0,11.0,89,0.00,,,0.00,Wunderground v.1.15,2013-07-11 02:32:00,
2013-07-10 19:37:00,53.0,49.8,30.01,NNE,21,6.0,11.0,89,0.00,,,0.00,Wunderground v.1.15,2013-07-11 02:37:00,
2013-07-10 19:42:00,52.7,49.5,30.01,NNE,17,5.0,11.0,89,0.00,,,0.00,Wunderground v.1.15,2013-07-11 02:42:00,
2013-07-10 19:47:00,52.4,49.6,30.01,North,355,7.0,13.0,90,0.00,,,0.00,Wunderground v.1.15,2013-07-11 02:47:00,
2013-07-10 19:53:00,52.0,49.2,30.01,North,355,10.0,11.0,90,0.00,,,0.00,Wunderground v.1.15,2013-07-11 02:53:00,
2013-07-10 19:59:00,52.0,49.2,30.02,North,355,9.0,14.0,90,0.00,,,0.00,Wunderground v.1.15,2013-07-11 02:59:00,
2013-07-10 20:05:00,52.0,49.5,30.02,NNW,348,9.0,16.0,91,0.00,,,0.00,Wunderground v.1.15,2013-07-11 03:05:00,
2013-07-10 20:11:00,51.8,49.3,30.02,North,350,9.0,11.0,91,0.00,,,0.00,Wunderground v.1.15,2013-07-11 03:11:00,
2013-07-10 20:16:00,51.7,49.2,30.02,North,355,9.0,11.0,91,0.00,,,0.00,Wunderground v.1.15,2013-07-11 03:16:00,
2013-07-10 20:22:00,51.6,49.1,30.02,NNE,24,8.0,11.0,91,0.00,,,0.00,Wunderground v.1.15,2013-07-11 03:22:00,
2013-07-10 20:28:00,51.5,49.0,30.02,North,355,7.0,11.0,91,0.00,,,0.00,Wunderground v.1.15,2013-07-11 03:28:00,
2013-07-10 20:34:00,51.4,49.2,30.02,North,5,6.0,11.0,92,0.00,,,0.00,Wunderground v.1.15,2013-07-11 03:34:00,
2013-07-10 20:39:00,51.2,49.0,30.02,NNE,17,6.0,11.0,92,0.00,,,0.00,Wunderground v.1.15,2013-07-11 03:39:00,
2013-07-10 20:44:00,51.0,48.8,30.02,North,9,5.0,11.0,92,0.00,,,0.00,Wunderground v.1.15,2013-07-11 03:44:00,
2013-07-10 20:49:00,50.9,48.7,30.02,NNE,27,5.0,11.0,92,0.00,,,0.00,Wunderground v.1.15,2013-07-11 03:49:00,
2013-07-10 20:55:00,50.9,48.7,30.02,North,355,5.0,11.0,92,0.00,,,0.00,Wunderground v.1.15,2013-07-11 03:55:00,
2013-07-10 21:00:00,50.8,48.8,30.02,NNE,24,5.0,5.0,93,0.00,,,0.00,Wunderground v.1.15,2013-07-11 04:00:00,
2013-07-10 21:01:00,50.7,48.7,30.02,ENE,57,5.0,11.0,93,0.00,,,0.00,Wunderground v.1.15,2013-07-11 04:01:00,
2013-07-10 21:02:00,50.7,48.7,30.02,North,5,5.0,11.0,93,0.00,,,0.00,Wunderground v.1.15,2013-07-11 04:02:00,
2013-07-10 21:03:00,50.7,48.7,30.02,NE,52,5.0,11.0,93,0.00,,,0.00,Wunderground v.1.15,2013-07-11 04:03:00,
2013-07-10 21:04:00,50.7,48.7,30.02,NE,55,5.0,11.0,93,0.00,,,0.00,Wunderground v.1.15,2013-07-11 04:04:00,
2013-07-10 21:05:00,50.7,48.7,30.02,NE,50,4.0,11.0,93,0.00,,,0.00,Wunderground v.1.15,2013-07-11 04:05:00,
2013-07-10 21:11:00,50.7,48.7,30.02,NNE,15,4.0,11.0,93,0.00,,,0.00,Wunderground v.1.15,2013-07-11 04:11:00,
2013-07-10 21:16:00,50.7,48.7,30.02,North,5,5.0,11.0,93,0.00,,,0.00,Wunderground v.1.15,2013-07-11 04:16:00,
2013-07-10 21:22:00,50.8,48.8,30.02,NE,54,5.0,11.0,93,0.00,,,0.00,Wunderground v.1.15,2013-07-11 04:22:00,
2013-07-10 21:27:00,50.8,48.8,30.03,NNE,28,5.0,11.0,93,0.00,,,0.00,Wunderground v.1.15,2013-07-11 04:27:00,
2013-07-10 21:33:00,50.7,48.7,30.03,NNE,17,5.0,11.0,93,0.00,,,0.00,Wunderground v.1.15,2013-07-11 04:33:00,
2013-07-10 21:39:00,50.6,48.7,30.03,NNE,30,5.0,11.0,93,0.00,,,0.00,Wunderground v.1.15,2013-07-11 04:39:00,
2013-07-10 21:44:00,50.4,48.5,30.03,NNE,13,5.0,11.0,93,0.00,,,0.00,Wunderground v.1.15,2013-07-11 04:44:00,
2013-07-10 21:50:00,50.3,48.4,30.03,NNE,26,4.0,4.0,93,0.00,,,0.00,Wunderground v.1.15,2013-07-11 04:50:00,
2013-07-10 21:55:00,50.3,48.4,30.04,NNE,19,3.0,11.0,93,0.00,,,0.00,Wunderground v.1.15,2013-07-11 04:55:00,
2013-07-10 22:01:00,50.3,48.4,30.04,NNE,30,3.0,11.0,93,0.00,,,0.00,Wunderground v.1.15,2013-07-11 05:01:00,
2013-07-10 22:06:00,50.3,48.4,30.04,NNE,26,4.0,11.0,93,0.00,,,0.00,Wunderground v.1.15,2013-07-11 05:06:00,
2013-07-10 22:12:00,50.3,48.4,30.04,NNE,12,4.0,11.0,93,0.00,,,0.00,Wunderground v.1.15,2013-07-11 05:12:00,
2013-07-10 22:18:00,50.4,48.7,30.04,ENE,58,4.0,11.0,94,0.00,,,0.00,Wunderground v.1.15,2013-07-11 05:18:00,
2013-07-10 22:23:00,50.4,48.5,30.04,NNE,26,4.0,11.0,93,0.00,,,0.00,Wunderground v.1.15,2013-07-11 05:23:00,
2013-07-10 22:28:00,50.4,48.5,30.04,NNE,27,4.0,11.0,93,0.00,,,0.00,Wunderground v.1.15,2013-07-11 05:28:00,
2013-07-10 22:34:00,50.4,48.5,30.04,NNE,18,4.0,11.0,93,0.00,,,0.00,Wunderground v.1.15,2013-07-11 05:34:00,
2013-07-10 22:40:00,50.5,48.6,30.04,North,9,4.0,4.0,93,0.00,,,0.00,Wunderground v.1.15,2013-07-11 05:40:00,
2013-07-10 22:46:00,50.5,48.6,30.05,NNE,29,4.0,11.0,93,0.00,,,0.00,Wunderground v.1.15,2013-07-11 05:46:00,
2013-07-10 22:51:00,50.4,48.5,30.05,NNE,22,4.0,11.0,93,0.00,,,0.00,Wunderground v.1.15,2013-07-11 05:51:00,
2013-07-10 22:57:00,50.3,48.4,30.05,North,11,4.0,11.0,93,0.00,,,0.00,Wunderground v.1.15,2013-07-11 05:57:00,
2013-07-10 23:03:00,50.2,48.3,30.05,NNE,24,4.0,11.0,93,0.00,,,0.00,Wunderground v.1.15,2013-07-11 06:03:00,
2013-07-10 23:09:00,50.2,48.3,30.05,NNE,20,4.0,11.0,93,0.00,,,0.00,Wunderground v.1.15,2013-07-11 06:09:00,
2013-07-10 23:14:00,50.0,48.1,30.05,NNE,23,3.0,11.0,93,0.00,,,0.00,Wunderground v.1.15,2013-07-11 06:14:00,
2013-07-10 23:19:00,50.2,48.3,30.05,NNE,26,3.0,11.0,93,0.00,,,0.00,Wunderground v.1.15,2013-07-11 06:19:00,
2013-07-10 23:24:00,49.9,48.0,30.05,North,9,4.0,11.0,93,0.00,,,0.00,Wunderground v.1.15,2013-07-11 06:24:00,
2013-07-10 23:30:00,49.9,48.0,30.05,NNE,27,4.0,4.0,93,0.00,,,0.00,Wunderground v.1.15,2013-07-11 06:30:00,
2013-07-10 23:36:00,49.8,47.9,30.05,NNE,18,3.0,11.0,93,0.00,,,0.00,Wunderground v.1.15,2013-07-11 06:36:00,
2013-07-10 23:42:00,49.7,47.8,30.05,NNE,24,3.0,11.0,93,0.00,,,0.00,Wunderground v.1.15,2013-07-11 06:42:00,
2013-07-10 23:47:00,49.7,48.0,30.05,NNE,22,3.0,11.0,94,0.00,,,0.00,Wunderground v.1.15,2013-07-11 06:47:00,
2013-07-10 23:52:00,49.6,47.7,30.05,NNE,19,3.0,11.0,93,0.00,,,0.00,Wunderground v.1.15,2013-07-11 06:52:00,
2013-07-10 23:58:00,49.5,47.6,30.05,NNE,21,3.0,11.0,93,0.00,,,0.00,Wunderground v.1.15,2013-07-11 06:58:00,